TimeEDT,TemperatureF,Dew PointF,Humidity,Sea Level PressureIn,VisibilityMPH,Wind Direction,Wind SpeedMPH,Gust SpeedMPH,PrecipitationIn,Events,Conditions,WindDirDegrees,DateUTC
12:54 AM,46.0,37.9,73,29.87,10.0,Variable,4.6,-,N/A,,Clear,0,2012-10-17 04:54:00
1:54 AM,46.9,37.9,71,29.88,10.0,South,5.8,-,N/A,,Clear,170,2012-10-17 05:54:00
2:54 AM,48.0,37.9,68,29.87,10.0,South,6.9,-,N/A,,Mostly Cloudy,170,2012-10-17 06:54:00
3:54 AM,46.9,37.9,71,29.85,10.0,South,3.5,-,N/A,,Mostly Cloudy,170,2012-10-17 07:54:00
4:54 AM,48.9,37.9,66,29.84,10.0,South,9.2,-,N/A,,Mostly Cloudy,180,2012-10-17 08:54:00
5:54 AM,48.9,37.9,66,29.84,10.0,South,5.8,-,N/A,,Clear,170,2012-10-17 09:54:00
6:54 AM,50.0,37.9,63,29.84,10.0,South,8.1,-,N/A,,Clear,180,2012-10-17 10:54:00
7:54 AM,48.9,37.9,66,29.85,10.0,South,5.8,-,N/A,,Clear,170,2012-10-17 11:54:00
8:54 AM,51.1,37.9,61,29.85,10.0,South,6.9,-,N/A,,Scattered Clouds,170,2012-10-17 12:54:00
9:54 AM,55.0,39.9,57,29.85,10.0,South,10.4,-,N/A,,Mostly Cloudy,180,2012-10-17 13:54:00
10:54 AM,60.1,42.1,51,29.85,10.0,South,10.4,-,N/A,,Clear,190,2012-10-17 14:54:00
11:54 AM,63.0,44.1,50,29.82,10.0,South,9.2,-,N/A,,Partly Cloudy,180,2012-10-17 15:54:00
12:54 PM,66.9,46.9,49,29.81,10.0,South,9.2,-,N/A,,Overcast,190,2012-10-17 16:54:00
1:54 PM,68.0,46.9,47,29.78,10.0,South,10.4,-,N/A,,Partly Cloudy,180,2012-10-17 17:54:00
2:54 PM,69.1,45.0,42,29.77,10.0,SSW,11.5,-,N/A,,Mostly Cloudy,200,2012-10-17 18:54:00
3:54 PM,71.1,46.0,41,29.75,10.0,SSW,9.2,-,N/A,,Clear,200,2012-10-17 19:54:00
4:54 PM,71.1,46.0,41,29.74,10.0,South,10.4,-,N/A,,Clear,170,2012-10-17 20:54:00
5:54 PM,68.0,45.0,43,29.73,10.0,South,10.4,-,N/A,,Clear,190,2012-10-17 21:54:00
6:54 PM,66.0,45.0,47,29.73,10.0,SSE,3.5,-,N/A,,Clear,160,2012-10-17 22:54:00
7:54 PM,64.9,46.0,50,29.72,10.0,South,4.6,-,N/A,,Clear,170,2012-10-17 23:54:00
8:54 PM,64.0,48.0,56,29.73,10.0,South,6.9,-,N/A,,Clear,170,2012-10-18 00:54:00
9:54 PM,63.0,48.0,58,29.71,10.0,Variable,4.6,-,N/A,,Clear,0,2012-10-18 01:54:00
10:54 PM,62.1,46.9,58,29.70,10.0,SSE,4.6,-,N/A,,Partly Cloudy,160,2012-10-18 02:54:00
11:54 PM,61.0,46.0,58,29.67,10.0,SE,8.1,-,N/A,,Clear,140,2012-10-18 03:54:00